Curacao, Curacao

2:26 AM AST on September 25, 2017 (GMT -0400)
Willemstad-Hato International

Weather History for TNCC - October, 2013

Change the Weather History Date:

Sunday, October 6, 2013

  Actual Average Record
Temperature  
Mean Temperature 85 °F -  
Max Temperature 89 °F 88 °F 93 °F (2015)
Min Temperature 81 °F 77 °F 75 °F (2007)
Cooling Degree Days 20    
Growing Degree Days 35 (Base 50)    
Moisture  
Dew Point 76 °F    
Average Humidity 76    
Maximum Humidity 84    
Minimum Humidity 62    
Precipitation  
Precipitation 0.00 in 0.11 in - ()
Sea Level Pressure  
Sea Level Pressure 29.85 in    
Wind  
Wind Speed 10 mph ()    
Max Wind Speed 16 mph    
Max Gust Speed -    
Visibility 6.8 miles    
Events      
Averages and records for this station are not official NWS values.
T = Trace of Precipitation, MM = Missing Value Source: Averaged Metar Reports

Daily Weather History Graph

Daily Weather History Graph

Search for Another Location

Airport or City:

Trip Planner

Search our weather history database for the weather conditions in past years. The results will help you decide how hot, cold, wet, or windy it might be!

Date:

Astronomy

Oct. 06, 2013 Rise Set
Actual Time 6:25 AM AST 6:22 PM AST
Civil Twilight 6:03 AM AST 6:43 PM AST
Nautical Twilight 5:39 AM AST 7:08 PM AST
Astronomical Twilight 5:14 AM AST 7:32 PM AST
Moon 7:44 AM AST (10/6) 7:44 PM AST (10/6)
Length of Visible Light 12h 39m
Length of Day
11h 57m
Waxing Crescent, 3% of the Moon is Illuminated
Oct 6
Waxing Crescent
Oct 11
First Quarter
Oct 18
Full
Oct 26
Last Quarter
Nov 3
New

Hourly Weather History & Observations

Time (AST) Temp. Heat Index Dew Point Humidity Pressure Visibility Wind Dir Wind Speed Gust Speed Precip Events Conditions
12:00 AM 82.4 °F 90.9 °F 77.0 °F 84% 29.86 in - ESE 10.4 mph - N/A   Clear
1:00 AM 82.4 °F 90.9 °F 77.0 °F 84% 29.86 in - East 10.4 mph - N/A   Clear
2:00 AM 82 °F - 77 °F 81% 29.85 in 25 mi ESE 8.1 mph - -   Clear
2:00 AM 82.4 °F 90.9 °F 77.0 °F 84% 29.83 in - East 12.7 mph - N/A   Clear
3:00 AM 82.4 °F 90.9 °F 77.0 °F 84% 29.83 in - ESE 10.4 mph - N/A   Clear
4:00 AM 82.4 °F 89.5 °F 75.2 °F 79% 29.83 in 6.2 mi ESE 11.5 mph - N/A   Partly Cloudy
5:00 AM 82 °F - 76 °F 77% 29.85 in 25 mi SE 10.4 mph - -   Scattered Clouds
5:00 AM 80.6 °F 86.2 °F 75.2 °F 84% 29.83 in 6.2 mi ESE 11.5 mph - N/A   Partly Cloudy
6:00 AM 80.6 °F 86.2 °F 75.2 °F 84% 29.86 in 6.2 mi ESE 10.4 mph - N/A   Partly Cloudy
7:00 AM 82.4 °F 89.5 °F 75.2 °F 79% 29.86 in 6.2 mi ESE 9.2 mph - N/A   Partly Cloudy
8:00 AM 85 °F - 75 °F 66% 29.90 in 25 mi SE 10.4 mph - -   Partly Cloudy
8:00 AM 86.0 °F 95.1 °F 75.2 °F 70% 29.89 in 6.2 mi ESE 11.5 mph - N/A   Scattered Clouds
9:00 AM 86.0 °F 95.1 °F 75.2 °F 70% 29.89 in 6.2 mi ESE 11.5 mph - N/A   Scattered Clouds
10:00 AM 87.8 °F 97.6 °F 75.2 °F 66% 29.92 in 6.2 mi East 11.5 mph - N/A   Scattered Clouds
11:00 AM 89 °F - 78 °F 62% 29.91 in 25 mi East 13.8 mph - -   Partly Cloudy
11:00 AM 87.8 °F 99.7 °F 77.0 °F 70% 29.92 in 6.2 mi East 13.8 mph - N/A   Scattered Clouds
12:00 PM 87.8 °F 99.7 °F 77.0 °F 70% 29.89 in 6.2 mi East 15.0 mph - N/A   Scattered Clouds
1:00 PM 87.8 °F 99.7 °F 77.0 °F 70% 29.86 in 6.2 mi East 13.8 mph - N/A   Scattered Clouds
2:00 PM 87.8 °F 99.7 °F 77.0 °F 70% 29.83 in 6.2 mi East 15.0 mph - N/A   Scattered Clouds
3:00 PM 87.8 °F 99.7 °F 77.0 °F 70% 29.80 in 6.2 mi East 15.0 mph - N/A   Scattered Clouds
4:00 PM 87.8 °F 99.7 °F 77.0 °F 70% 29.80 in 6.2 mi East 16.1 mph - N/A   Scattered Clouds
5:00 PM 86.0 °F 96.9 °F 77.0 °F 74% 29.80 in 6.2 mi East 13.8 mph - N/A   Partly Cloudy
6:00 PM 84.2 °F 94.1 °F 77.0 °F 79% 29.80 in 6.2 mi East 12.7 mph - N/A   Partly Cloudy
7:00 PM 84.2 °F 94.1 °F 77.0 °F 79% 29.80 in 6.2 mi East 12.7 mph - N/A   Partly Cloudy
8:00 PM 84.2 °F 94.1 °F 77.0 °F 79% 29.80 in 6.2 mi East 13.8 mph - N/A   Partly Cloudy
9:00 PM 84.2 °F 94.1 °F 77.0 °F 79% 29.86 in 6.2 mi ESE 13.8 mph - N/A   Partly Cloudy
10:00 PM 84.2 °F 94.1 °F 77.0 °F 79% 29.86 in 6.2 mi East 13.8 mph - N/A   Partly Cloudy
11:00 PM 83 °F - 77 °F 77% 29.88 in 19 mi ESE 9.2 mph - -   Scattered Clouds
11:00 PM 82.4 °F 90.9 °F 77.0 °F 84% 29.89 in 6.2 mi East 11.5 mph - N/A   Partly Cloudy